GW2087 Weather Reports


time (UTC)temp
F
wind
direction
speed
knots
gust
knots
rain 1hr
in
rain 24hr
in
rain mn
in
humidity
%
barometer
mb
20260509213040 66 205 2.6 2.6 0.00 0.22 0.22 60 1006.7
20260509212537 64 234 0.9 1.7 0.00 0.22 0.22 60 1006.7
20260509212034 65 205 5.2 6.1 0.00 0.22 0.22 59 1006.7
20260509211530 65 203 2.6 2.6 0.00 0.22 0.22 60 1006.7
20260509211027 65 233 6.1 8.7 0.00 0.22 0.22 60 1007.0
20260509210524 64 213 3.5 4.3 0.00 0.22 0.22 61 1007.2
20260509210020 65 211 3.5 4.3 0.00 0.22 0.22 60 1007.0
20260509205514 66 225 5.2 7.0 0.00 0.22 0.22 61 1006.9
20260509205010 67 225 4.3 6.1 0.00 0.22 0.22 59 1006.8
20260509204507 67 240 3.5 6.1 0.00 0.22 0.22 60 1006.9
20260509204003 66 202 3.5 4.3 0.00 0.22 0.22 61 1007.0
20260509203459 68 217 3.5 5.2 0.00 0.22 0.22 61 1007.4
20260509202957 67 219 5.2 7.8 0.00 0.22 0.22 61 1007.2
20260509202452 66 225 4.3 5.2 0.00 0.22 0.22 61 1007.3
20260509201948 66 203 2.6 4.3 0.00 0.22 0.22 60 1007.7
20260509201443 66 172 3.5 4.3 0.00 0.22 0.22 62 1007.5
20260509200940 66 224 4.3 4.3 0.00 0.22 0.22 64 1007.7
20260509200440 66 254 3.5 4.3 0.00 0.22 0.22 63 1007.8
20260509195937 65 255 3.5 5.2 0.00 0.22 0.22 64 1007.8
20260509195427 65 243 2.6 4.3 0.00 0.22 0.22 65 1007.6
20260509194926 64 220 4.3 6.1 0.00 0.22 0.22 67 1007.9
20260509194417 64 208 7.8 8.7 0.00 0.22 0.22 67 1007.7
20260509193914 64 243 2.6 2.6 0.00 0.22 0.22 67 1007.9
20260509193413 63 198 3.5 4.3 0.00 0.22 0.22 69 1008.0
20260509192910 63 214 5.2 7.0 0.00 0.22 0.22 68 1007.9
20260509192406 62 227 5.2 6.1 0.00 0.22 0.22 70 1008.0
20260509191901 62 214 5.2 6.1 0.00 0.22 0.22 71 1008.0
20260509191357 62 219 3.5 4.3 0.00 0.22 0.22 71 1007.9
20260509190854 62 236 2.6 2.6 0.00 0.22 0.22 74 1008.0
20260509190350 62 209 2.6 2.6 0.00 0.22 0.22 74 1008.1
20260509185848 62 182 5.2 7.8 0.00 0.22 0.22 73 1008.3
20260509185344 61 249 0.9 0.9 0.00 0.22 0.22 75 1008.5
20260509184842 61 218 1.7 2.6 0.00 0.22 0.22 78 1008.3
20260509184339 61 253 2.6 4.3 0.00 0.22 0.22 77 1008.4
20260509183835 61 223 3.5 6.1 0.00 0.22 0.22 78 1008.3
20260509183331 61 236 5.2 7.0 0.00 0.22 0.22 76 1008.4
20260509182827 60 208 4.3 7.0 0.00 0.22 0.22 78 1008.5
20260509182324 60 245 2.6 2.6 0.00 0.22 0.22 80 1008.3
20260509181821 60 220 3.5 5.2 0.00 0.22 0.22 80 1008.5
20260509181318 60 172 3.5 7.8 0.00 0.22 0.22 80 1008.4
20260509180815 59 209 3.5 5.2 0.00 0.22 0.22 81 1008.5
20260509180312 60 186 3.5 5.2 0.00 0.22 0.22 81 1008.8
20260509175808 60 206 1.7 1.7 0.00 0.22 0.22 83 1008.7
20260509175307 60 218 1.7 2.6 0.00 0.22 0.22 81 1008.4
20260509174801 58 213 4.3 5.2 0.00 0.22 0.22 84 1008.4
20260509174256 59 235 0.9 0.9 0.00 0.22 0.22 84 1008.5
20260509173753 58 212 3.5 5.2 0.00 0.22 0.22 85 1008.5
20260509173248 58 217 0.9 0.9 0.00 0.22 0.22 85 1008.8
20260509172744 57 195 4.3 6.1 0.00 0.22 0.22 87 1008.6
20260509172241 56 204 0.9 1.7 0.00 0.22 0.22 91 1008.6
20260509171736 55 231 2.6 2.6 0.00 0.22 0.22 91 1008.8
20260509171233 55 205 1.7 2.6 0.00 0.22 0.22 91 1008.8
20260509170730 56 217 4.3 5.2 0.00 0.22 0.22 91 1008.8
20260509170226 55 202 0.9 1.7 0.00 0.22 0.22 91 1008.8
20260509165724 55 264 2.6 4.3 0.00 0.22 0.22 91 1009.0
20260509165220 55 217 3.5 4.3 0.00 0.22 0.22 92 1008.8
20260509164716 54 176 3.5 4.3 0.00 0.22 0.22 93 1008.7
20260509164212 54 221 2.6 2.6 0.00 0.22 0.22 93 1008.9
20260509163709 54 231 1.7 2.6 0.00 0.22 0.22 93 1008.7
20260509163206 55 221 4.3 4.3 0.00 0.22 0.22 94 1009.0
20260509162703 55 227 0.9 1.7 0.07 0.22 0.22 95 1008.6
20260509162159 54 214 3.5 4.3 0.07 0.22 0.22 95 1008.6
20260509161654 53 288 1.7 1.7 0.00 0.21 0.21 96 1008.5
20260509161150 53 176 3.5 4.3 0.00 0.21 0.21 97 1008.6
20260509160646 53 211 1.7 1.7 0.00 0.21 0.21 97 1008.6
20260509160141 52 232 1.7 1.7 0.00 0.21 0.21 97 1008.6
20260509155638 52 225 2.6 2.6 0.00 0.21 0.21 97 1008.4
20260509155134 52 192 1.7 1.7 0.00 0.21 0.21 97 1008.7
20260509154630 52 205 1.7 1.7 0.00 0.21 0.21 97 1008.3
20260509154127 52 213 3.5 4.3 0.00 0.21 0.21 97 1008.2
20260509153625 52 217 4.3 5.2 0.00 0.21 0.21 97 1008.6
20260509153121 52 235 2.6 4.3 0.00 0.21 0.21 98 1008.2
20260509152617 52 230 3.5 4.3 0.00 0.21 0.21 98 1008.5
20260509152115 52 220 1.7 1.7 0.00 0.21 0.21 98 1008.4
20260509151611 51 201 3.5 4.3 0.00 0.21 0.21 98 1008.4
20260509151109 51 201 4.3 5.2 0.00 0.21 0.21 98 1008.3
20260509150606 51 248 1.7 2.6 0.00 0.21 0.21 98 1008.4
20260509150104 51 213 2.6 2.6 0.00 0.21 0.21 98 1008.3
20260509145600 51 227 4.3 5.2 0.00 0.21 0.21 98 1008.5
20260509145055 51 222 2.6 4.3 0.00 0.21 0.21 98 1008.4
20260509144552 51 181 3.5 4.3 0.00 0.21 0.21 98 1008.3
20260509144049 51 213 3.5 5.2 0.00 0.21 0.21 98 1008.7
20260509143546 51 211 3.5 4.3 0.00 0.21 0.21 98 1008.6
20260509143044 51 218 1.7 2.6 0.00 0.21 0.21 98 1008.7
20260509142539 51 229 0.9 1.7 0.00 0.21 0.21 98 1008.5
20260509142035 51 210 3.5 4.3 0.00 0.21 0.21 98 1008.5
20260509141532 51 275 1.7 1.7 0.00 0.21 0.21 98 1008.5
20260509141028 51 248 0.9 1.7 0.05 0.21 0.21 98 1008.7
20260509140525 51 221 1.7 2.6 0.05 0.21 0.21 98 1008.5
20260509140023 51 229 6.1 7.0 0.00 0.20 0.20 98 1008.5
20260509135520 51 245 0.9 0.9 0.07 0.20 0.20 98 1008.7
20260509135017 51 195 3.5 4.3 0.07 0.20 0.20 98 1008.7
20260509134515 51 214 2.6 2.6 0.00 0.19 0.19 98 1008.6
20260509134012 51 194 5.2 6.1 0.00 0.19 0.19 98 1008.8
20260509133508 51 258 2.6 2.6 0.00 0.19 0.19 98 1008.7
20260509133007 50 228 0.9 1.7 0.00 0.19 0.19 99 1008.5
20260509132505 50 185 2.6 4.3 0.00 0.19 0.19 99 1008.8
20260509132002 50 231 6.1 6.1 0.00 0.19 0.19 99 1008.3
20260509131458 50 223 2.6 2.6 0.00 0.19 0.19 99 1008.7
20260509130955 50 215 1.7 1.7 0.00 0.19 0.19 99 1008.6
20260509130450 50 223 2.6 2.6 0.00 0.19 0.19 99 1008.8
20260509125948 50 215 3.5 5.2 0.00 0.19 0.19 99 1008.6
20260509125444 50 226 3.5 4.3 0.05 0.19 0.19 99 1008.5
20260509124940 49 216 1.7 1.7 0.05 0.19 0.19 99 1008.7
20260509124438 49 220 0.9 1.7 0.05 0.19 0.19 99 1008.8
20260509123935 49 211 2.6 4.3 0.00 0.18 0.18 99 1008.8
20260509123432 49 217 0.9 0.9 0.00 0.18 0.18 99 1008.6
20260509122928 49 245 2.6 4.3 0.00 0.18 0.18 99 1008.9
20260509122425 49 191 2.6 5.2 0.00 0.18 0.18 99 1008.6
20260509121922 49 208 1.7 1.7 0.00 0.18 0.18 99 1008.8
20260509121419 49 219 2.6 4.3 0.00 0.18 0.18 99 1009.0
20260509120917 48 216 2.6 2.6 0.00 0.18 0.18 99 1008.9
20260509120414 48 219 1.7 1.7 0.00 0.18 0.18 99 1008.9
20260509115912 48 236 3.5 4.3 0.00 0.18 0.18 99 1009.2
20260509115409 48 214 3.5 5.2 0.00 0.18 0.18 99 1008.8
20260509114907 48 214 3.5 4.3 0.07 0.18 0.18 99 1008.9
20260509114405 48 218 3.5 4.3 0.07 0.18 0.18 99 1008.8
20260509113905 48 208 1.7 2.6 0.00 0.17 0.17 99 1008.9
20260509113401 48 232 2.6 2.6 0.05 0.17 0.17 99 1008.9
20260509112857 48 200 2.6 2.6 0.05 0.17 0.17 99 1008.9
20260509112355 48 189 2.6 2.6 0.00 0.16 0.16 99 1008.9
20260509111852 48 245 0.9 0.9 0.00 0.16 0.16 99 1008.9
20260509111348 48 208 0.9 0.9 0.00 0.16 0.16 99 1009.0
20260509110847 48 203 2.6 2.6 0.00 0.16 0.16 99 1008.7
20260509110342 48 238 2.6 2.6 0.00 0.16 0.16 99 1008.6
20260509105841 47 230 0.9 0.9 0.00 0.16 0.16 99 1008.8
20260509105339 47 223 0.9 0.9 0.07 0.16 0.16 99 1008.9
20260509104835 47 223 1.7 1.7 0.07 0.16 0.16 99 1008.9
20260509104332 47 229 0.9 0.9 0.07 0.16 0.16 99 1009.0
20260509103829 47 225 0.9 0.9 0.00 0.15 0.15 99 1008.7
20260509103327 47 228 0.9 0.9 0.00 0.15 0.15 99 1009.1
20260509102826 47 227 0.9 0.9 0.05 0.15 0.15 99 1008.9
20260509102322 47 229 1.7 1.7 0.05 0.15 0.15 99 1008.9
20260509101818 47 224 0.9 0.9 0.07 0.14 0.14 99 1008.8
20260509101314 47 242 0.0 0.9 0.07 0.14 0.14 99 1009.0
20260509100812 47 243 0.0 0.0 0.05 0.13 0.13 99 1009.2
20260509100309 47 231 0.0 0.0 0.12 0.13 0.13 99 1009.3
20260509095806 47 231 0.0 0.0 0.07 0.12 0.12 99 1009.2
20260509095305 47 231 0.0 0.0 0.00 0.11 0.11 99 1009.2
20260509094800 47 231 0.0 0.0 0.07 0.11 0.11 99 1009.2
20260509094256 47 231 0.0 0.0 0.07 0.11 0.11 99 1009.0
20260509093754 47 230 0.0 0.9 0.00 0.10 0.10 99 1009.4
20260509093251 47 236 0.0 0.0 0.05 0.10 0.10 99 1009.3
20260509092750 47 237 0.0 0.0 0.05 0.10 0.10 99 1009.3
20260509092247 47 232 0.9 0.9 0.00 0.09 0.09 99 1009.4
20260509091745 47 224 0.9 0.9 0.07 0.09 0.09 99 1009.4
20260509091241 47 224 0.9 1.7 0.07 0.09 0.09 99 1009.3
20260509090739 47 237 0.9 0.9 0.00 0.08 0.08 99 1009.5
20260509090236 47 238 0.0 0.0 0.05 0.08 0.08 99 1009.2
20260509085734 47 238 0.0 0.0 0.05 0.08 0.08 99 1009.3
20260509085231 47 238 0.0 0.0 0.07 0.07 0.07 99 1009.5
20260509084727 47 237 0.0 0.0 0.07 0.07 0.07 99 1009.8
20260509084224 47 238 0.0 0.0 0.05 0.06 0.06 99 1010.0
20260509083722 47 238 0.0 0.0 0.05 0.06 0.06 99 1009.7
20260509083219 47 238 0.0 0.0 0.00 0.05 0.05 99 1009.8
20260509082715 47 238 0.0 0.0 0.00 0.05 0.05 99 1009.8
20260509082212 47 238 0.0 0.0 0.07 0.05 0.05 99 1009.8
20260509081709 47 237 0.0 0.0 0.07 0.05 0.05 99 1009.7
20260509081206 47 237 0.0 0.0 0.00 0.04 0.04 99 1009.7
20260509080704 47 237 0.0 0.0 0.00 0.04 0.04 99 1009.7
20260509080202 47 237 0.0 0.0 0.05 0.04 0.04 99 1009.7
20260509075700 47 237 0.0 0.0 0.05 0.04 0.04 99 1009.7
20260509075157 47 237 0.0 0.0 0.00 0.03 0.03 99 1009.6
20260509074654 47 237 0.0 0.0 0.00 0.03 0.03 99 1010.0
20260509074150 47 237 0.0 0.0 0.00 0.03 0.03 99 1009.6
20260509073647 47 237 0.0 0.9 0.00 0.03 0.03 99 1009.7
20260509073144 47 231 0.9 0.9 0.00 0.03 0.03 99 1009.8
20260509072641 47 252 0.0 0.0 0.00 0.03 0.03 99 1009.6
20260509072137 47 256 0.0 0.0 0.00 0.03 0.03 99 1009.5
20260509071634 47 261 0.0 0.9 0.00 0.03 0.03 99 1009.4
20260509071131 47 217 0.0 0.0 0.00 0.03 0.03 99 1009.4
20260509070628 47 243 0.0 0.9 0.00 0.03 0.03 99 1009.6
20260509070125 47 243 0.0 0.0 0.00 0.03 0.03 99 1009.3
20260509065620 47 258 0.9 0.9 0.00 0.03 0.03 99 1009.3
20260509065116 47 264 0.0 0.0 0.00 0.03 0.03 99 1009.3
20260509064614 47 264 0.0 0.0 0.00 0.03 0.03 99 1009.5
20260509064112 47 264 0.0 0.0 0.00 0.03 0.03 99 1009.6
20260509063608 47 265 0.0 0.0 0.00 0.03 0.03 99 1009.8
20260509063105 47 264 0.0 0.0 0.00 0.03 0.03 99 1009.8
20260509062602 47 264 0.0 0.0 0.00 0.03 0.03 99 1010.1
20260509062059 47 264 0.0 0.0 0.00 0.03 0.03 99 1010.0
20260509061556 47 264 0.0 0.9 0.00 0.03 0.03 99 1010.1
20260509061053 47 264 0.0 0.0 0.00 0.03 0.03 99 1010.3
20260509060551 47 264 0.0 0.0 0.00 0.03 0.03 99 1010.3
20260509060046 47 265 0.0 0.0 0.00 0.03 0.03 99 1010.6
20260509055542 47 265 0.0 0.0 0.00 0.03 0.03 99 1010.5
20260509055038 47 266 0.9 0.9 0.00 0.03 0.03 99 1010.4
20260509054535 47 250 0.0 0.0 0.00 0.03 0.03 99 1010.7
20260509054033 47 250 0.0 0.0 0.00 0.03 0.03 99 1010.8
20260509053532 47 248 0.0 0.0 0.00 0.03 0.03 99 1010.8
20260509053028 47 248 0.9 0.9 0.00 0.03 0.03 99 1010.8
20260509052526 47 267 0.0 0.0 0.00 0.03 0.03 99 1010.9
20260509052024 47 259 0.0 0.0 0.00 0.03 0.03 99 1011.0
20260509051521 47 243 0.0 0.0 0.00 0.03 0.03 99 1011.0
20260509051018 47 243 0.0 0.0 0.00 0.03 0.03 99 1011.0
20260509050515 47 234 0.0 0.0 0.00 0.03 0.03 98 1010.9
20260509050012 47 221 0.0 0.0 0.07 0.03 0.03 98 1011.1
20260509045509 48 222 0.0 0.0 0.07 0.03 0.03 98 1011.3
20260509045006 48 221 0.0 0.0 0.00 0.02 0.02 98 1011.3
20260509044504 48 221 0.0 0.0 0.00 0.02 0.02 98 1011.3
20260509044001 48 221 0.0 0.0 0.00 0.02 0.02 98 1011.3
20260509043456 48 221 0.0 0.0 0.05 0.02 0.02 98 1011.5
20260509042951 48 221 0.0 0.0 0.05 0.02 0.02 98 1011.6
20260509042449 48 221 0.0 0.0 0.00 0.01 0.01 98 1011.5
20260509041945 48 221 0.9 0.9 0.00 0.01 0.01 98 1011.8
20260509041442 48 221 0.0 0.0 0.07 0.01 0.01 98 1011.5
20260509040940 48 221 0.0 0.0 0.07 0.01 0.01 98 1011.8
20260509040438 48 221 0.0 0.0 0.00 0.00 0.00 98 1011.7
20260509035934 48 218 0.9 0.9 0.00 0.15 0.15 98 1012.0
20260509035431 48 224 0.0 0.0 0.05 0.15 0.15 98 1012.1
20260509034927 48 224 0.0 0.0 0.05 0.15 0.15 98 1012.0
20260509034426 48 224 0.0 0.9 0.05 0.15 0.15 98 1012.1
20260509033922 48 225 0.0 0.9 0.00 0.14 0.14 98 1012.1
20260509033419 48 224 0.9 0.9 0.07 0.14 0.14 98 1012.3
20260509032916 48 226 0.0 0.9 0.07 0.14 0.14 98 1012.0
20260509032413 48 223 0.9 1.7 0.00 0.13 0.13 98 1012.2
20260509031911 48 217 0.9 1.7 0.00 0.13 0.13 98 1012.2
20260509031408 48 229 1.7 1.7 0.07 0.13 0.13 98 1012.1
20260509030906 48 225 0.9 0.9 0.07 0.13 0.13 98 1012.1
20260509030404 48 235 0.9 0.9 0.07 0.13 0.13 98 1012.4
20260509025901 48 235 0.0 0.9 0.05 0.12 0.12 98 1012.5
20260509025356 48 232 0.9 1.7 0.05 0.12 0.12 98 1012.6
20260509024851 48 229 0.9 0.9 0.00 0.11 0.11 97 1012.6
20260509024348 48 235 0.0 0.0 0.00 0.11 0.11 97 1012.5
20260509023845 48 232 0.0 0.9 0.07 0.11 0.11 97 1012.8
20260509023342 48 237 0.0 0.0 0.12 0.11 0.11 97 1012.6
20260509022838 48 244 0.0 0.0 0.05 0.10 0.10 97 1013.3
20260509022336 48 248 0.0 0.9 0.07 0.09 0.09 97 1013.1
20260509021833 48 269 0.0 0.0 0.07 0.09 0.09 97 1012.8
20260509021330 48 280 1.7 1.7 0.05 0.08 0.08 97 1012.2
20260509020827 48 267 0.9 0.9 0.05 0.08 0.08 97 1012.0
20260509020325 48 222 1.7 1.7 0.00 0.07 0.07 97 1011.7
20260509015823 48 217 0.0 0.0 0.00 0.07 0.07 97 1012.3
20260509015320 48 220 0.9 0.9 0.00 0.07 0.07 97 1011.9
20260509014817 48 227 0.0 0.0 0.07 0.07 0.07 96 1012.2
20260509014314 48 227 0.0 0.0 0.07 0.07 0.07 96 1011.8
20260509013811 48 80 0.0 0.0 0.07 0.07 0.07 96 1011.9
20260509013307 49 234 0.0 0.0 0.00 0.06 0.06 96 1012.0
20260509012803 49 246 0.0 0.0 0.00 0.06 0.06 96 1012.0
20260509012300 49 248 0.0 0.0 0.00 0.06 0.06 96 1012.0
20260509011757 49 239 0.0 0.0 0.00 0.06 0.06 96 1012.0
20260509011254 49 230 0.0 0.0 0.00 0.06 0.06 96 1011.8
20260509010752 49 257 0.9 0.9 0.00 0.06 0.06 96 1011.7
20260509010249 49 224 0.9 0.9 0.00 0.06 0.06 95 1011.9
20260509005746 49 215 0.9 1.7 0.00 0.06 0.06 95 1011.2
20260509005243 49 226 0.9 0.9 0.00 0.06 0.06 95 1011.5
20260509004738 49 217 1.7 1.7 0.00 0.06 0.06 95 1011.2
20260509004235 49 222 1.7 1.7 0.00 0.06 0.06 94 1011.3
20260509003733 49 337 0.0 0.0 0.00 0.06 0.06 94 1011.5
20260509003230 49 316 1.7 1.7 0.05 0.06 0.06 94 1011.4
20260509002728 49 225 0.9 0.9 0.05 0.06 0.06 94 1011.4
20260509002225 49 319 0.0 0.0 0.00 0.05 0.05 94 1011.3
20260509001723 49 248 0.0 0.0 0.00 0.05 0.05 94 1011.3
20260509001218 49 259 0.0 0.0 0.00 0.05 0.05 94 1011.4
20260509000717 50 260 0.0 0.9 0.00 0.05 0.05 93 1011.4
20260509000213 50 225 1.7 1.7 0.00 0.05 0.05 93 1011.5
20260508235710 49 234 0.0 0.0 0.00 0.05 0.05 93 1010.9
20260508235206 50 234 0.9 0.9 0.00 0.05 0.05 93 1010.9
20260508234704 50 234 0.9 0.9 0.00 0.05 0.05 93 1011.0
20260508234201 50 241 0.9 0.9 0.00 0.05 0.05 92 1010.8
20260508233700 50 240 0.9 0.9 0.00 0.05 0.05 92 1010.8
20260508233157 50 241 0.9 0.9 0.00 0.05 0.05 91 1010.7
20260508232655 50 230 0.9 0.9 0.00 0.05 0.05 89 1010.8
20260508232151 50 244 0.0 0.0 0.00 0.05 0.05 86 1010.8
20260508231649 50 226 0.9 0.9 0.00 0.05 0.05 87 1011.2
20260508231145 50 265 0.0 0.0 0.00 0.05 0.05 86 1011.0
20260508230642 50 232 1.7 1.7 0.00 0.05 0.05 87 1011.4
20260508230138 50 263 0.0 0.0 0.00 0.05 0.05 86 1011.3
20260508225637 50 284 0.9 0.9 0.00 0.05 0.05 86 1011.4
20260508225132 50 262 0.0 0.0 0.00 0.05 0.05 86 1011.3
20260508224630 51 220 0.0 0.0 0.00 0.05 0.05 86 1011.4
20260508224128 51 227 0.9 1.7 0.00 0.05 0.05 85 1011.2
20260508223626 51 238 3.5 4.3 0.00 0.05 0.05 84 1011.2
20260508223122 51 206 1.7 2.6 0.00 0.05 0.05 83 1011.3
20260508222620 51 212 1.7 2.6 0.00 0.05 0.05 82 1011.4
20260508222117 52 305 1.7 1.7 0.00 0.05 0.05 82 1011.3
20260508221613 52 216 2.6 2.6 0.00 0.05 0.05 80 1011.2
20260508221109 52 219 6.1 7.0 0.00 0.05 0.05 79 1011.3
20260508220606 52 222 3.5 4.3 0.00 0.05 0.05 80 1011.6
20260508215559 52 210 3.5 4.3 0.00 0.05 0.05 78 1011.7
20260508215055 53 230 1.7 2.6 0.00 0.05 0.05 79 1011.6
20260508214553 53 213 2.6 2.6 0.00 0.05 0.05 77 1011.6
20260508214049 53 228 2.6 2.6 0.00 0.05 0.05 77 1011.6
20260508213547 53 237 2.6 2.6 0.00 0.05 0.05 75 1011.7